Simultaneous Nadir Overpasses (SNOs) Predictions

Prediction of SNOs between GOES-14 and NOAA-20 Satellite Orbit:

Table of predicted SNOs for the next 14.0 days since TLE Epoch: 1/14/2023
Index Date Time (GOES-14) GOES-14 Lat,Lon NOAA-20 Lat,Lon Distance(km) Time Diff (sec)
1 01/14/2023 08:36:21 -0.07,-104.59 0.73,-108.07 397.14 80
2 01/15/2023 08:17:37 -0.06,-104.59 -0.28,-103.54 120.21 80
3 01/17/2023 20:20:48 0.06,-104.22 0.02,-104.29 8.45 80
4 01/20/2023 08:23:52 -0.05,-104.62 0.06,-105.04 48.70 80
5 01/21/2023 08:05:08 -0.04,-104.62 -0.96,-100.51 468.14 80
6 01/22/2023 20:29:43 0.04,-104.24 -0.31,-105.80 177.60 80
7 01/23/2023 20:08:19 0.04,-104.24 0.72,-101.27 339.32 80
8 01/25/2023 08:30:08 -0.04,-104.64 0.37,-106.56 218.03 80
9 01/26/2023 08:14:04 -0.04,-104.65 -0.66,-102.03 299.48 80
10 01/27/2023 20:35:58 0.04,-104.28 -0.65,-107.30 344.92 80
